Location: Observatoire
(46.1952°N, 5.3391°E)
Time: 07:03:12
(UTC+01:00)

Altair - Pass Details

Date: 26 February 2026
Orbit: 1502 x 1682 km, 47.2° (Epoch: 9 March)

Event Time Altitude Azimuth Distance (km) Brightness Sun altitude
Rises 10:57:18 0° 288° (WNW) 4,714 9.6 29.5°
Reaches altitude 10° 11:01:35 10° 271° (W) 3,758 9.3 29.9°
Maximum altitude 11:07:21 18° 233° (SW) 3,203 9.4 30.4°
Drops below altitude 10° 11:13:14 10° 195° (SSW) 3,836 10.4 30.9°
Sets 11:17:45 0° 178° (S) 4,850 11.0 31.3°
